AT160 Weather Reports


time (UTC)temp
C
wind
direction
speed
KPH
gust
KPH
rain 1hr
cm
rain 24hr
cm
rain mn
cm
humidity
%
barometer
mb
20260902154812 30 158 3.2 14.5 0.00 0.00 0.00 59 1011.6
20260902153312 30 161 1.6 9.7 0.00 0.00 0.00 54 1012.1
20260902150734 31 224 3.2 9.7 0.00 0.00 0.00 51 1012.5
20260902150346 31 141 3.2 16.1 0.00 0.00 0.00 51 1012.5
20260902145306 30 141 1.6 9.7 0.00 0.00 0.00 57 1012.3
20260902143749 30 131 3.2 9.7 0.00 0.00 0.00 56 1012.3
20260902141206 30 168 3.2 11.3 0.00 0.00 0.00 65 1012.6
20260902135710 30 134 3.2 11.3 0.00 0.00 0.00 65 1012.7
20260902134226 30 124 4.8 12.9 0.00 0.00 0.00 66 1012.8
20260902133246 30 157 3.2 12.9 0.00 0.00 0.00 66 1012.9
20260902132725 31 155 4.8 12.9 0.00 0.00 0.00 64 1012.9
20260902131223 30 154 4.8 11.3 0.00 0.00 0.00 64 1013.1
20260902130138 30 124 4.8 12.9 0.00 0.00 0.00 64 1013.4
20260902124629 29 123 6.4 12.9 0.00 0.00 0.00 69 1013.7
20260902123148 29 196 6.4 12.9 0.00 0.00 0.00 67 1013.9
20260902122645 30 112 6.4 11.3 0.00 0.00 0.00 66 1013.9
20260902121646 30 124 4.8 11.3 0.00 0.00 0.00 62 1014.1
20260902120546 31 145 1.6 9.7 0.00 0.00 0.00 60 1014.3
20260902115117 31 158 0.0 8.0 0.00 0.00 0.00 58 1014.4
20260902113728 30 83 1.6 9.7 0.00 0.00 0.00 62 1014.6
20260902112306 30 99 3.2 11.3 0.00 0.00 0.00 64 1014.8
20260902110820 30 107 1.6 8.0 0.00 0.00 0.00 62 1014.9
20260902105307 30 113 1.6 4.8 0.00 0.00 0.00 62 1014.9
20260902103909 30 114 0.0 1.6 0.00 0.00 0.00 60 1015.0
20260902103444 30 121 0.0 1.6 0.00 0.00 0.00 60 1015.0
20260902102843 30 137 0.0 3.2 0.00 0.00 0.00 60 1015.0
20260902102555 30 120 0.0 3.2 0.00 0.00 0.00 60 1015.2
20260902101145 30 72 0.0 3.2 0.00 0.00 0.00 63 1015.3
20260902100814 30 76 1.6 4.8 0.00 0.00 0.00 62 1015.3
20260902095750 30 52 0.0 4.8 0.00 0.00 0.00 61 1015.4
20260902095228 30 38 1.6 4.8 0.00 0.00 0.00 61 1015.4
20260902094552 29 1 3.2 9.7 0.00 0.00 0.00 61 1015.3
20260902093504 29 23 3.2 11.3 0.00 0.00 0.00 61 1015.3
20260902092931 28 0 4.8 11.3 0.00 0.00 0.00 62 1015.3
20260902091740 28 34 4.8 9.7 0.00 0.00 0.00 65 1015.3
20260902090144 28 35 1.6 4.8 0.00 0.00 0.00 67 1015.4
20260902084728 28 357 3.2 9.7 0.00 0.00 0.00 70 1015.4
20260902084232 28 6 8.0 12.9 0.00 0.00 0.00 70 1015.4
20260902082105 27 17 8.0 12.9 0.00 0.00 0.00 77 1015.2
20260902080601 27 21 6.4 12.9 0.00 0.00 0.00 81 1015.0
20260902075112 26 3 8.0 12.9 0.00 0.00 0.00 82 1015.0
20260902074016 26 17 4.8 12.9 0.00 0.00 0.00 83 1015.0
20260902072603 27 21 4.8 12.9 0.00 0.00 0.00 84 1014.9
20260902071035 26 62 4.8 11.3 0.00 0.00 0.00 84 1014.9
20260902065609 26 8 3.2 11.3 0.00 0.00 0.00 85 1014.9
20260902064150 26 17 4.8 11.3 0.00 0.00 0.00 86 1014.9
20260902063130 26 7 1.6 9.7 0.00 0.00 0.00 87 1014.9
20260902062709 25 0 0.0 0.0 0.00 0.00 0.00 89 1014.9
20260902061152 25 20 0.0 0.0 0.00 0.00 0.00 90 1014.9
20260902060158 25 27 1.6 8.0 0.00 0.00 0.00 90 1014.9
20260902055854 25 21 1.6 8.0 0.00 0.00 0.00 89 1014.9
20260902055400 25 30 1.6 8.0 0.00 0.00 0.00 89 1014.9
20260902054456 25 37 1.6 4.8 0.00 0.00 0.00 88 1014.8
20260902053244 24 305 1.6 4.8 0.00 0.00 0.00 87 1014.5
20260902051940 24 311 1.6 9.7 0.00 0.00 0.00 87 1014.5
20260902051425 24 284 1.6 8.0 0.00 0.00 0.00 88 1014.5
20260902050225 24 287 3.2 11.3 0.00 0.00 0.00 89 1014.5
20260902045025 24 306 1.6 8.0 0.00 0.00 0.00 90 1014.4
20260902043810 24 301 1.6 9.7 0.00 0.00 0.00 91 1014.4
20260902043450 24 292 1.6 8.0 0.00 0.00 0.00 91 1014.4
20260902042419 24 284 3.2 9.7 0.00 0.00 0.00 92 1014.4
20260902041937 24 287 1.6 8.0 0.00 0.00 0.00 92 1014.4
20260902040917 23 298 1.6 8.0 0.00 0.00 0.00 93 1014.4
20260902035428 23 280 3.2 6.4 0.00 0.00 0.00 95 1014.3
20260902034335 23 268 3.2 4.8 0.00 0.00 0.00 96 1014.3
20260902033914 23 264 1.6 4.8 0.00 0.00 0.00 96 1014.4
20260902032838 23 264 1.6 4.8 0.00 0.00 0.00 97 1014.4
20260902031327 23 260 0.0 3.2 0.00 0.00 0.00 98 1014.3
20260902030942 23 296 0.0 1.6 0.00 0.00 0.00 98 1014.3
20260902030556 23 298 0.0 1.6 0.00 0.00 0.00 98 1014.3
20260902030129 23 298 0.0 0.0 0.00 0.00 0.00 98 1014.3
20260902025753 23 298 0.0 0.0 0.00 0.00 0.00 98 1014.3
20260902024546 23 298 0.0 1.6 0.00 0.00 0.00 97 1014.3
20260902023704 23 322 0.0 1.6 0.00 0.00 0.00 97 1014.3
20260902022946 23 322 0.0 0.0 0.00 0.00 0.00 97 1014.3
20260902021719 23 322 0.0 0.0 0.00 0.00 0.00 97 1014.3
20260902020432 23 322 0.0 3.2 0.00 0.00 0.00 97 1014.3
20260902020126 23 322 1.6 4.8 0.00 0.00 0.00 97 1014.3
20260902014905 23 322 0.0 4.8 0.00 0.00 0.00 97 1014.3
20260902014600 23 328 1.6 6.4 0.00 0.00 0.00 96 1014.3
20260902013236 23 319 1.6 6.4 0.00 0.00 0.00 96 1014.3
20260902011957 23 319 1.6 8.0 0.00 0.00 0.00 96 1014.2
20260902010740 23 335 3.2 8.0 0.00 0.00 0.00 95 1014.2
20260902010405 24 336 3.2 8.0 0.00 0.00 0.00 95 1014.2
20260902005735 24 352 3.2 0.0 0.00 0.00 0.00 95 1014.1
20260902004959 24 342 0.0 4.8 0.00 0.00 0.00 94 1013.9
20260902004646 24 261 0.0 0.0 0.00 0.00 0.00 94 1013.9
20260902002935 24 261 0.0 1.6 0.00 0.00 0.00 93 1013.8
20260902002651 24 261 0.0 1.6 0.00 0.00 0.00 93 1013.8
20260902002044 24 261 0.0 3.2 0.00 0.00 0.00 93 1013.5
20260902001648 24 256 0.0 3.2 0.00 0.00 0.00 93 1013.5
20260902001133 25 264 0.0 0.0 0.00 0.00 0.00 92 1013.5
20260901235530 25 265 0.0 0.0 0.00 0.00 0.00 93 1013.7
20260901235147 25 265 0.0 0.0 0.00 0.00 0.00 92 1013.6
20260901233936 25 271 0.0 3.2 0.00 0.00 0.00 92 1013.6
20260901232432 25 265 0.0 3.2 0.00 0.00 0.00 91 1013.4
20260901231241 25 256 0.0 3.2 0.00 0.00 0.00 91 1013.5
20260901230945 25 260 0.0 3.2 0.00 0.00 0.00 91 1013.5
20260901225701 25 272 0.0 3.2 0.00 0.00 0.00 91 1013.7
20260901224230 25 270 0.0 0.0 0.00 0.00 0.00 91 1013.6
20260901223814 25 270 0.0 1.6 0.00 0.00 0.00 90 1013.5
20260901223036 25 270 0.0 3.2 0.00 0.00 0.00 90 1013.5
20260901222746 25 270 0.0 4.8 0.00 0.00 0.00 90 1013.5
20260901221523 25 240 0.0 3.2 0.00 0.00 0.00 90 1013.4
20260901220621 25 219 0.0 0.0 0.00 0.00 0.00 89 1013.4
20260901220026 25 219 0.0 1.6 0.00 0.00 0.00 89 1013.4
20260901215719 25 219 0.0 3.2 0.00 0.00 0.00 89 1013.4
20260901214834 25 227 0.0 3.2 0.00 0.00 0.00 89 1013.3
20260901214543 25 227 0.0 3.2 0.00 0.00 0.00 88 1013.3
20260901213322 25 241 0.0 3.2 0.00 0.00 0.00 88 1013.3
20260901211854 25 248 0.0 4.8 0.00 0.00 0.00 88 1013.2
20260901210637 25 239 0.0 3.2 0.00 0.00 0.00 87 1013.1
20260901210331 25 220 0.0 3.2 0.00 0.00 0.00 87 1013.1
20260901205834 25 217 0.0 1.6 0.00 0.00 0.00 87 1013.1
20260901205104 25 219 0.0 1.6 0.00 0.00 0.00 86 1013.1
20260901202409 26 210 0.0 3.2 0.00 0.00 0.00 85 1013.1
20260901202107 26 189 0.0 3.2 0.00 0.00 0.00 85 1012.9
20260901201622 26 209 0.0 3.2 0.00 0.00 0.00 85 1012.9
20260901200921 26 168 0.0 3.2 0.00 0.00 0.00 84 1012.9
20260901195434 26 212 0.0 3.2 0.00 0.00 0.00 83 1012.7
20260901194935 26 192 0.0 4.8 0.00 0.00 0.00 83 1012.7
20260901194419 26 192 0.0 4.8 0.00 0.00 0.00 82 1012.7
20260901192652 26 216 0.0 4.8 0.00 0.00 0.00 82 1012.6
20260901192253 26 230 0.0 4.8 0.00 0.00 0.00 81 1012.6
20260901191441 26 209 0.0 1.6 0.00 0.00 0.00 81 1012.2
20260901191152 26 161 0.0 1.6 0.00 0.00 0.00 80 1012.2
20260901190644 26 199 0.0 3.2 0.00 0.00 0.00 80 1012.2
20260901185658 26 179 0.0 6.4 0.00 0.00 0.00 79 1012.1
20260901182916 26 165 0.0 4.8 0.00 0.00 0.00 79 1011.7
20260901181714 27 171 0.0 3.2 0.00 0.00 0.00 78 1011.7
20260901180208 27 195 1.6 8.0 0.00 0.00 0.00 77 1011.3
20260901175756 27 195 0.0 8.0 0.00 0.00 0.00 77 1011.4
20260901175221 27 200 0.0 9.7 0.00 0.00 0.00 76 1011.4
20260901173527 27 195 1.6 8.0 0.00 0.00 0.00 75 1011.4
20260901171933 27 195 1.6 11.3 0.00 0.00 0.00 73 1011.4
20260901170755 28 133 1.6 4.8 0.00 0.00 0.00 72 1011.4
20260901165918 28 168 1.6 16.1 0.00 0.00 0.00 71 1011.4
20260901165249 28 192 1.6 9.7 0.00 0.00 0.00 71 1011.4
20260901163739 29 155 1.6 11.3 0.00 0.00 0.00 69 1011.4
20260901162607 29 136 0.0 9.7 0.00 0.00 0.00 67 1011.3
20260901162253 30 171 0.0 9.7 0.00 0.00 0.00 67 1011.3
20260901161209 30 186 0.0 8.0 0.00 0.00 0.00 66 1011.2
20260901155733 30 192 1.6 8.0 0.00 0.00 0.00 65 1011.1